Location: Lake Almanor
(40.2485°N, 121.1442°W)
Time: 07:27:03
(UTC-08:00)

STARLINK-1093 - Pass Details

Date: 28 January 2020
Orbit: 348 x 351 km, 53.0° (Epoch: 18 February)

Event Time Altitude Azimuth Distance (km) Brightness Sun altitude
Rises 18:28:13 0° 319° (NW) 2,166 7.1 -13.6°
Reaches altitude 10° 18:30:50 10° 345° (NNW) 1,321 5.6 -14.1°
Enters shadow 18:32:23 15° 17° (NNE) 1,079 4.8 -14.3°
